Probability
0 0 0 0 0 0 0 0 0 0 0 0 0 0 0 0 0 1 1 2 2 1 0 1 1 1 0 0 0 0 0 0 0 0 0 0 0 0 0 0 0 0 0
1 1 0 0 0 0 0 0 0 0 0 0 0 0 0 1 2 2 2 2 2 1 1 2 3 2 1 0 0 1 1 1 0 0 0 0 0 0 0 0 0 0 0
4 3 1 1 0 1 1 1 0 0 1 0 0 0 1 3 4 3 3 3 3 3 3 4 5 4 2 1 1 2 2 2 2 1 0 0 0 0 0 0 0 0 0
6 5 3 2 2 2 2 1 0 0 0 0 0 0 1 2 3 3 3 4 4 5 4 5 6 5 4 4 4 3 3 3 4 3 2 1 1 0 0 0 0 0 0
6 4 3 3 3 2 1 1 0 0 0 0 0 0 0 1 1 1 2 3 3 3 3 5 6 6 5 6 6 5 4 4 4 3 3 3 2 0 0 0 0 0 0
5 4 3 4 3 2 1 0 1 1 1 1 1 1 1 0 0 0 1 1 1 1 1 2 3 4 5 6 8 7 6 5 3 2 1 2 1 1 1 0 0 0 0
6 4 3 2 1 1 1 1 2 2 2 2 2 2 2 1 0 0 0 0 0 0 0 0 2 3 5 7 7 7 6 5 3 1 1 1 2 2 2 1 0 0 0
5 3 2 1 0 1 2 3 3 3 3 3 3 3 3 1 1 0 0 0 0 0 0 1 2 4 5 5 5 3 3 2 2 2 2 2 2 2 2 1 0 0 0
2 2 1 1 1 2 3 3 3 3 3 3 3 3 3 3 2 1 0 0 0 0 0 1 3 4 5 4 3 1 0 0 1 1 2 2 2 2 1 0 0 0 0
1 1 1 2 3 3 3 3 3 3 3 3 3 3 3 4 3 2 2 2 2 2 2 3 4 5 5 5 4 2 0 0 0 1 2 2 2 2 1 0 1 1 0
1 1 1 3 3 3 3 3 3 3 3 3 3 3 4 5 5 5 4 4 4 4 5 6 6 6 5 5 5 3 1 0 0 1 2 2 1 1 1 1 2 2 1
1 1 2 3 3 3 3 3 3 3 3 4 5 5 6 7 8 7 5 4 5 5 6 7 6 5 5 6 5 3 1 0 0 0 1 1 1 1 1 2 3 3 3
0 1 2 3 4 3 3 4 5 5 5 6 8 9 8 8 9 8 5 3 3 3 4 4 4 3 4 6 5 3 1 0 0 0 0 0 0 0 0 1 2 2 2
1 1 2 3 3 3 4 6 7 8 8 9 10 10 10 9 9 7 5 3 1 1 1 2 2 2 2 4 4 3 2 1 0 0 0 0 0 0 0 0 1 1 1
5 5 5 5 5 5 5 7 8 9 9 9 10 10 10 10 8 6 6 4 1 0 0 2 2 2 2 2 2 4 4 2 0 0 0 0 0 0 0 0 0 0 0
9 9 8 8 7 7 7 7 7 7 7 8 9 9 9 8 7 6 6 5 3 1 1 1 2 2 2 1 1 4 5 4 2 0 0 0 0 0 0 0 0 0 0
10 9 8 8 8 8 8 7 5 5 5 6 6 7 6 6 7 6 6 6 5 4 2 0 1 2 2 1 1 3 4 4 3 1 0 0 0 0 0 0 0 0 0
9 8 7 6 6 6 5 4 3 3 3 4 4 4 4 5 5 5 5 5 6 5 3 1 1 2 3 3 3 2 2 3 3 1 0 0 0 0 0 0 0 0 0
8 7 6 5 4 3 2 2 3 3 3 3 3 3 3 3 3 3 4 5 6 5 4 3 3 3 3 3 3 3 2 2 1 0 0 0 0 0 0 0 0 0 0
8 8 6 5 4 3 3 3 3 3 3 3 2 2 2 1 1 2 3 6 6 5 5 4 4 5 4 3 3 3 3 2 1 1 1 0 0 0 0 0 0 0 0
10 9 8 6 6 5 4 3 3 4 4 3 2 2 1 1 1 1 3 5 6 5 6 6 6 6 5 4 3 3 3 3 2 2 1 0 0 0 0 0 0 0 0
12 11 9 8 6 5 4 3 4 5 5 5 4 3 3 2 2 2 3 3 4 4 5 6 6 6 5 5 4 3 3 2 2 2 1 0 0 0 0 0 0 0 0
14 14 11 9 8 6 4 3 4 6 6 6 6 5 4 4 3 3 3 2 3 3 4 5 5 4 4 4 3 3 3 2 1 1 0 0 0 0 0 0 0 0 0
15 14 13 12 10 7 5 4 4 5 6 6 6 6 5 4 4 3 3 3 3 3 3 4 4 3 3 3 3 3 3 3 2 1 0 0 0 0 0 0 0 0 0
14 14 14 14 11 8 6 3 3 5 6 6 6 6 5 4 3 3 3 3 3 3 3 3 3 3 3 3 3 3 3 3 3 1 0 0 0 0 0 0 0 0 0
12 12 14 14 12 9 6 3 2 5 6 6 6 6 5 4 3 3 3 3 3 3 3 3 3 3 3 3 2 3 3 3 3 2 1 0 0 0 0 0 0 0 0
Wind_Speed
1 1 1 1 0 1 2 2 1 1 2 2 2 2 2 1 1 2 3 7 7 6 7 8 8 8 9 10 10 10 10 10 10 10 10 10 10 9 9 9 9 9 9
1 1 1 1 0 0 0 0 1 2 2 1 1 1 2 2 1 2 3 6 8 7 6 8 9 9 10 10 10 10 10 11 11 10 10 10 10 10 10 10 10 10 10
1 1 1 1 1 1 1 1 2 2 2 2 2 2 2 2 2 2 3 2 4 7 7 7 7 9 10 11 11 11 11 11 11 11 11 11 11 10 10 10 10 10 10
1 1 0 0 1 2 2 1 2 1 1 2 1 1 1 2 2 3 3 2 2 2 5 6 5 6 9 9 10 11 11 11 12 12 12 12 12 11 11 10 10 10 10
1 1 0 0 2 1 1 2 1 1 1 2 2 2 2 2 2 2 2 2 1 1 2 5 5 4 5 7 8 8 9 9 10 12 12 13 13 12 12 11 11 10 10
0 1 1 1 2 2 1 1 1 2 2 2 2 0 1 1 1 1 2 1 1 1 1 1 2 4 4 3 4 5 6 7 7 8 9 9 10 11 10 10 10 9 9
1 1 1 0 2 1 1 2 2 2 2 1 2 1 1 1 1 0 0 0 0 0 0 0 1 1 2 4 2 2 4 5 6 7 7 8 9 8 9 9 8 7 8
1 0 1 1 1 1 1 1 2 2 2 2 2 2 2 2 1 1 1 0 0 1 1 0 0 0 1 1 2 1 1 2 3 4 5 6 7 7 8 8 8 8 8
1 2 1 2 2 2 1 1 2 2 2 2 2 2 2 0 1 1 2 1 1 1 1 1 1 1 1 1 2 2 2 1 0 1 2 3 3 5 6 7 7 7 8
1 1 1 2 2 2 2 2 1 2 3 2 2 2 2 1 1 1 1 2 2 2 2 2 2 2 2 2 4 6 6 4 2 1 1 0 1 2 4 6 6 6 6
1 2 2 2 2 2 3 3 2 3 2 3 2 2 2 2 3 1 1 1 1 2 2 2 2 2 2 3 3 6 8 7 5 4 3 3 3 1 1 2 3 3 3
0 1 1 2 2 3 3 3 3 2 3 3 3 2 2 2 2 1 2 2 1 2 3 3 3 3 3 4 6 9 9 8 8 7 6 6 6 6 5 4 3 2 1
0 1 2 2 2 2 3 3 2 3 2 2 3 2 2 2 1 1 2 2 1 1 2 3 3 3 3 4 5 9 11 10 10 10 10 10 10 10 9 7 6 5 5
2 2 2 2 2 3 3 2 2 2 2 2 2 2 2 1 0 1 1 2 2 2 2 3 3 3 4 4 6 6 9 12 11 11 11 11 11 11 10 10 10 9 8
0 1 2 2 2 3 3 2 2 2 2 2 2 1 1 1 0 0 1 1 2 2 2 2 2 3 3 5 5 6 7 12 12 12 12 12 12 12 12 11 11 11 10
1 1 1 2 2 3 3 3 2 3 2 3 2 3 2 1 1 1 0 0 1 1 2 3 3 3 4 4 6 5 8 12 13 12 12 12 12 12 12 12 12 12 12
1 1 1 2 2 3 3 3 3 3 3 3 3 3 3 2 1 1 1 1 1 2 4 4 3 4 4 4 4 4 5 5 9 11 12 12 12 12 12 12 12 11 12
2 2 2 2 2 3 3 3 3 4 4 4 4 3 3 2 2 2 1 2 3 3 4 5 4 3 4 4 4 3 4 5 7 11 12 12 12 11 11 11 11 11 11
3 3 3 2 2 3 3 3 3 4 4 4 4 4 3 3 2 2 2 2 3 4 4 5 4 3 3 3 3 4 5 3 5 9 10 11 11 11 11 11 11 11 10
3 3 3 3 2 3 3 3 3 4 4 4 4 4 4 3 3 2 2 3 3 4 5 4 5 4 4 3 2 3 4 3 3 4 6 6 9 10 11 10 10 10 9
4 4 3 3 2 2 3 3 2 3 3 4 4 4 5 6 7 5 3 3 3 2 3 4 4 4 3 3 2 2 3 3 4 2 3 4 5 5 7 8 9 9 8
4 4 3 3 2 4 6 5 3 3 3 4 4 3 4 5 6 6 7 7 5 2 2 2 3 4 3 3 2 2 2 2 3 2 1 3 3 3 4 5 8 7 6
5 4 3 3 4 5 4 4 3 2 4 4 4 3 3 5 3 4 6 6 6 6 3 1 3 2 3 3 2 3 2 1 2 2 1 2 2 3 4 7 8 5 5
4 4 3 4 4 4 3 2 1 3 4 4 4 4 4 4 4 2 4 5 6 5 3 2 3 2 3 2 1 2 3 3 3 2 0 1 2 2 3 5 9 6 5
4 4 4 4 4 4 3 1 3 3 4 4 4 4 3 4 4 3 4 5 5 5 6 6 4 4 4 2 0 1 2 3 3 3 1 1 1 1 2 3 7 9 7
5 4 4 3 4 4 3 1 4 2 3 3 4 4 5 4 3 3 3 4 4 3 4 5 5 5 5 5 3 1 1 1 1 2 2 1 1 1 1 2 3 6 6
Wind_Direction
115 107 91 87 153 140 167 177 184 183 215 207 209 206 229 226 213 207 144 157 182 201 207 207 204 203 204 209 213 214 214 214 213 210 209 212 214 213 214 213 210 209 210
108 145 153 125 156 190 354 229 204 208 215 210 220 211 236 249 233 230 209 167 182 199 213 216 213 212 212 212 216 219 220 223 221 218 216 217 217 217 219 219 218 216 217
116 170 151 182 146 163 187 223 230 231 217 202 216 231 231 241 232 230 238 215 184 186 200 212 216 217 218 216 219 221 220 222 222 219 218 220 220 220 220 224 227 225 223
159 235 195 191 204 227 216 209 232 228 233 237 228 248 237 212 230 227 223 216 220 194 179 188 211 221 221 219 220 223 224 225 224 222 222 224 227 227 225 228 232 232 230
180 229 237 17 248 244 252 263 213 253 237 244 229 219 240 233 228 227 211 210 195 214 195 162 181 208 218 224 226 227 227 226 224 225 225 227 230 229 227 228 231 233 232
127 287 204 226 264 256 259 280 274 263 260 253 266 298 281 256 234 204 217 199 196 205 211 183 188 191 196 222 242 241 236 233 226 223 221 221 225 222 219 223 226 227 228
34 294 306 217 267 265 281 263 257 228 234 238 242 214 189 198 130 135 248 261 135 38 357 345 277 271 173 177 212 255 249 240 234 229 223 224 223 218 216 216 216 218 225
351 281 291 274 286 278 253 273 266 278 253 236 261 252 211 173 145 102 119 153 53 82 70 51 354 345 316 124 102 147 259 260 251 234 226 227 226 219 214 214 218 220 223
9 355 350 321 322 303 334 298 276 272 273 258 258 278 272 198 117 126 84 70 57 65 70 52 53 60 49 50 50 73 99 80 282 261 250 229 213 217 214 214 216 220 223
357 349 346 342 327 324 337 290 291 271 266 261 233 245 276 303 237 158 130 100 83 59 35 15 31 59 49 59 62 46 60 60 57 46 352 326 211 213 207 211 219 223 227
1 343 343 340 330 326 341 327 321 291 272 273 264 248 243 231 238 225 193 128 90 74 63 39 29 45 54 66 70 61 63 61 59 55 56 49 48 103 163 200 211 216 215
32 358 327 332 324 331 328 315 306 295 301 296 285 271 258 257 241 213 196 176 125 80 64 47 35 36 47 60 65 66 65 63 60 59 61 60 58 63 71 75 74 81 108
28 24 346 337 335 335 324 320 312 316 308 295 282 276 270 267 259 216 187 167 135 107 75 56 35 37 50 64 70 75 70 68 67 67 67 66 64 62 60 59 56 53 54
15 10 348 348 347 340 338 338 322 329 336 312 307 306 292 308 245 184 184 174 164 130 91 77 52 41 53 62 63 75 75 72 71 70 70 69 68 65 63 61 57 55 55
23 28 3 358 1 4 353 337 14 355 357 346 359 11 349 37 13 311 175 208 218 169 119 102 88 61 69 69 58 72 75 74 75 74 73 72 71 69 67 66 63 60 60
20 13 9 16 16 15 12 2 35 32 27 36 27 32 15 33 44 39 81 172 243 159 125 105 88 78 71 87 83 82 86 89 77 76 76 75 73 71 69 68 65 62 62
83 47 35 40 42 34 30 32 39 42 43 46 40 52 49 33 35 69 88 101 102 117 126 114 104 99 97 87 86 89 97 96 90 82 81 77 73 71 69 67 66 64 62
108 89 74 61 55 51 43 46 42 43 42 42 42 47 44 61 65 51 73 96 97 105 129 127 120 111 98 93 92 88 89 90 97 95 90 83 76 73 71 68 65 63 61
116 103 92 78 61 58 57 58 56 51 47 45 41 42 42 52 58 69 69 87 102 109 119 130 126 112 108 106 111 106 100 95 104 119 113 101 89 82 77 72 69 67 64
127 115 105 94 83 72 68 64 66 61 55 51 43 42 42 48 58 82 97 100 106 119 130 133 129 128 123 126 136 129 121 110 90 93 93 104 113 106 93 83 76 73 69
132 120 116 111 107 99 62 50 73 76 65 61 57 56 58 53 42 36 50 83 112 127 135 134 131 128 122 134 137 142 121 124 118 107 122 125 132 120 112 104 86 73 73
129 128 124 114 92 67 55 26 6 77 68 65 63 70 95 89 83 73 62 61 58 91 114 132 128 133 139 140 145 158 135 137 127 121 139 118 113 103 101 91 88 84 79
141 138 133 120 101 85 73 55 22 75 79 67 61 51 60 82 98 108 117 120 90 73 69 109 121 128 139 138 169 167 142 123 87 108 171 114 115 113 114 104 113 106 96
145 142 136 128 119 104 96 88 326 117 91 82 74 70 70 71 56 62 106 102 98 88 76 93 101 110 110 126 184 163 145 146 146 126 170 148 121 123 116 125 137 140 137
149 152 143 140 134 124 114 132 280 133 116 101 87 72 71 85 41 6 114 113 109 113 103 89 79 94 96 101 318 180 160 174 149 133 140 261 136 148 147 145 150 166 169
157 159 144 149 146 133 126 175 281 175 134 131 119 108 75 69 59 11 120 119 114 104 108 124 132 148 148 142 171 221 222 213 171 149 134 247 180 204 174 157 157 166 178